Station THLO1 - Toledo Light No. 2 OH Image indicating link to RSS feed of recent meteorological observations for station THLO1


Conditions at THLO1 as of
(12:00 am EDT)
0400 GMT on 06/14/2024:
     

Click on the graph icon in the table below to see a time series plot of the last five days of that observation.

5-day plot - Wind Direction Wind Direction (WDIR): SW ( 230 deg true )
5-day plot - Wind Speed Wind Speed (WSPD): 10 kts
5-day plot - Wind Gust Wind Gust (GST): 11 kts
5-day plot - Atmospheric Pressure Atmospheric Pressure (PRES):29.85 in
5-day plot - Pressure Tendency Pressure Tendency (PTDY):+0.01 in ( Rising )
5-day plot - Air Temperature Air Temperature (ATMP): 70.7 °F
5-day plot - Dew Point Dew Point (DEWP): 66.2 °F
5-day plot - Wind Speed at 10 Meters Wind Speed at 10 meters (WSPD10M): 10 kts
5-day plot - Wind Speed at 20 Meters Wind Speed at 20 meters (WSPD20M): 10 kts
5-day plot -  Wind Speed, Wind Gust and Atmospheric Pressure Combined plot of Wind Speed, Gust, and Air Pressure
Previous observations
TIME
(EDT)
5-day plot - Wind Direction
WDIR
 
5-day plot - Wind Speed
WSPD
kts
5-day plot - Wind Gust
GST
kts
5-day plot - Wave Height
WVHT
ft
5-day plot - Dominant Wave Period
DPD
sec
5-day plot - Average Wave Period
APD
sec
5-day plot - Mean Wave Direction
MWD
 
5-day plot - Atmospheric Pressure
PRES
in
5-day plot - Pressure Tendency
PTDY
in
5-day plot - Air Temperature
ATMP
°F
5-day plot - Water Temperature
WTMP
°F
5-day plot - Dew Point
DEWP
°F
5-day plot - Salinity
SAL
psu
5-day plot - Visibility
VIS
nmi
5-day plot - Tide (above MLLW)
TIDE
ft
2024-06-13 11:00 pmSSW 9 10----29.83-0.03 71.8- 64.8---
2024-06-13 10:00 pm S 16 18----29.83- 72.5- 64.6---
2024-06-13 09:00 pmSSW 19 22----29.84+0.02 73.0- 64.4---
2024-06-13 08:00 pm W 22 25----29.87+0.06 75.4- 63.9---
2024-06-13 07:00 pm SW 13 14----29.82+0.00 79.7- 62.8---
2024-06-13 06:00 pm SW 15 18----29.82-0.03 81.0- 61.3---
2024-06-13 05:00 pm SW 20 23----29.81-0.05 82.4- 60.8---
2024-06-13 04:00 pm SW 13 15----29.82-0.03 79.3- 64.0---
2024-06-13 03:00 pm SW 13 15----29.85- 79.0- 64.8---
2024-06-13 02:00 pm SW 12 13----29.86-0.04 78.4- 64.4---
2024-06-13 01:00 pm S 10 12----29.86-0.05 75.0- 64.8---
2024-06-13 12:00 pm S 10 11----29.87-0.03 73.2- 62.8---
2024-06-13 11:00 amSSW 11 12----29.89+0.00 71.6- 61.5---
2024-06-13 10:00 am SW 12 13----29.91+0.02 71.2- 61.0---
2024-06-13 09:00 am SW 16 18----29.91+0.02 70.9- 59.7---
2024-06-13 08:00 amSSW 17 19----29.89+0.01 70.7- 58.1---
2024-06-13 07:00 amSSW 17 20----29.89+0.00 70.3- 57.2---
2024-06-13 06:00 amSSW 16 18----29.88-0.01 70.2- 57.0---
2024-06-13 05:00 amSSW 15 17----29.88-0.01 70.7- 56.8---
2024-06-13 04:00 am S 14 16----29.89- 70.7- 56.8---
2024-06-13 03:00 am S 14 15----29.89+0.01 71.8- 57.6---
2024-06-13 02:00 amSSW 15 16----29.89+0.01 72.7- 57.7---
2024-06-13 01:00 am S 17 19----29.89+0.00 73.6- 57.0---